Regional Weather Roundup
Issued by NWS

Home | Current Version | Previous Version | Text Only | Print | Product List | Glossary Off
Versions: 1 2 3 4 5 6 7 8 9 10 11 12 13 14 15 16 17 18 19 20 21 22 23 24 25 26 27 28 29 30 31 32 33 34 35 36 37 38 39 40 41 42 43 44 45 46 47 48 49 50

000
ASUS44 KMEG 222310
RWRTN
TENNESSEE HOURLY STATE WEATHER ROUNDUP
NATIONAL WEATHER SERVICE MEMPHIS TN
600 PM CDT TUE APR 22 2014

TNZ002-004-019-021-049-052-054-088>092-230000-
WEST TENNESSEE

CITY           SKY/WX    TMP DP  RH WIND       PRES   REMARKS
MEMPHIS INTL   MOSUNNY   75  45  34 N13       29.91S
NWS MEMPHIS      N/A     76 N/A N/A MISG        N/A
JACKSON        SUNNY     74  45  35 N12       29.90S
DYERSBURG      SUNNY     72  43  35 NW10G17   29.93S
UNION CITY     SUNNY     70  43  37 N9        29.91S
PARIS          SUNNY     70  40  33 VRB6      29.91R
LEXINGTON      SUNNY     73  52  46 NW8       29.87R
SILERTON         N/A     75  52  44 NW5         N/A
SAVANNAH       MOSUNNY   74  57  55 NW8       29.87S
$$

TNZ008-025-027-028-033-062-065-066-230000-
NORTH MIDDLE TENNESSEE

CITY           SKY/WX    TMP DP  RH WIND       PRES   REMARKS
NASHVILLE      MOSUNNY   75  48  38 NW14G21   29.84S
DICKSON        SUNNY     73  45  35 N14       29.87R
PORTLAND         N/A     72  46  40 N16       29.86R
CLARKSVILLE    SUNNY     71  43  36 N12       29.88S
SMYRNA         MOSUNNY   76  54  46 N12       29.85R
MURFREESBORO   SUNNY     76  53  44 N9        29.83R
COOKEVILLE     MOSUNNY   75  57  53 NW5       29.82F
LIVINGSTON     MOSUNNY   70  52  52 N12       29.84
GALLATIN       SUNNY     74  49  41 N13       29.86R
CROSSVILLE     MOSUNNY   69  55  60 W12       29.84F
$$

TNZ061-075-076-078-094-096-097-230000-
SOUTH MIDDLE TENNESSEE

CITY           SKY/WX    TMP DP  RH WIND       PRES   REMARKS
LEWISBURG      MOSUNNY   76  59  55 VRB5      29.83F
FAYETTEVILLE   PTSUNNY   73  57  57 NW7       29.85S
TULLAHOMA      PTSUNNY   72  57  60 N6        29.85F
WINCHESTER     SUNNY     72  57  60 W3        29.84F
MCMINNVILLE    SUNNY     72  61  68 W7        29.84S
COLUMBIA       MOSUNNY   77  64  65 NW6       29.83S
SHELBYVILLE    PTSUNNY   70  61  73 NE7       29.85S
$$

TNZ017-018-042-046-047-230000-
NORTHEAST TENNESSEE

CITY           SKY/WX    TMP DP  RH WIND       PRES   REMARKS
TRI CITIES     PTSUNNY   65  56  72 SW14      29.79S
ELIZABETHTON   MOCLDY    63  55  77 W5        29.79S
$$

TNZ012-013-036-069-073-074-230000-
CENTRAL EAST TENNESSEE

CITY           SKY/WX    TMP DP  RH WIND       PRES   REMARKS
KNOXVILLE      MOSUNNY   67  61  81 SW9       29.80F
OAK RIDGE      PTSUNNY   71  60  68 S7        29.80F
$$

TNZ083-085-099-230000-
SOUTHEAST TENNESSEE

CITY           SKY/WX    TMP DP  RH WIND       PRES   REMARKS
CHATTANOOGA    MOSUNNY   72  60  66 SW3       29.82F
$$

SKY/WX REPORTED AS FAIR MEANS FEW OR NO CLOUDS BELOW
12 THOUSAND FEET.




USA.gov is the U.S. government's official web portal to all federal, state and local government web resources and services.